Content
SEND FEEDBACK

Daily
Averages
Monthly
Summary
United States of America

BUENA VISTA, VIRGINIA


Home > North America > United States > Virginia
Elevation: 84 feet     Latitude: 37 44N     Longitude: 079 21W

WEATHER
 
SELECT A DAY
Number of Records: 215,250;   Date Range: 1/1/95 - 10/30/14
 
SHARE

PRINT THIS DATA

[ ← Previous Day ]
WEATHER ALMANAC - JANUARY 19, 2013
[ Next Day → ]
[ °C ]   °F
Weather ElementAverageHighLow
Temperature35.7 °F50 °F (2:54 pm)24.1 °F (1:54 am)
Dewpoint26.3 °F30.9 °F (1:54 pm)21 °F (5:54 am)
Humidity70.3 %91 % (1:54 am)44 % (3:54 pm)
Barometer30.31 in30.47 in (1:54 am)30.09 in (11:54 pm)
Wind Speed6.9 mph11.5 mph (10:54 am)
Weather ElementAverage
Visibility10 mi
Wind DirectionSSW (197.8 °)

Weather ElementTotal
Precipitation---
Heating Degree Days28 (Base 65)
Averaged from 23 records on January 19, 2013
WEATHER CONDITIONS BREAKOUT
WIND DIRECTION BREAKOUT
WEATHER BY HOUR - JANUARY 19, 2013
[ °C ]   °F
Local TimeTemperatureDewpointHumidityBarometerVisibilityWind DirectionWind SpeedGust SpeedPrecipitationEventsConditions
1:54 AM24.1 °F21.9 °F91 %30.47 in10.0 miSW (230°)3.5 mphClear
2:54 AM25.0 °F21.9 °F88 %30.45 in10.0 miSSW (210°)5.8 mphClear
3:54 AM25.0 °F21.9 °F88 %30.45 in10.0 miCalmClear
4:54 AM25.0 °F21.9 °F88 %30.44 in10.0 miSSW (210°)4.6 mphClear
5:54 AM24.1 °F21.0 °F88 %30.44 in10.0 miSSW (200°)6.9 mphClear
6:54 AM26.1 °F23.0 °F88 %30.44 in10.0 miSSW (210°)5.8 mphClear
7:54 AM28.0 °F23.0 °F81 %30.43 in10.0 miSSW (210°)8.1 mphClear
8:54 AM30.9 °F25.0 °F79 %30.43 in10.0 miSW (220°)6.9 mphClear
9:54 AM35.1 °F27.0 °F72 %30.43 in10.0 miWSW (240°)5.8 mphClear
10:54 AM37.0 °F27.0 °F67 %30.40 in10.0 miSSW (200°)11.5 mphClear
11:54 AM39.9 °F30.0 °F68 %30.35 in10.0 miSouth (190°)8.1 mphClear
12:54 PM45.0 °F28.9 °F53 %30.30 in10.0 miSSW (210°)6.9 mphClear
1:54 PM48.9 °F30.9 °F50 %30.26 in10.0 miSouth (190°)9.2 mphClear
2:54 PM50.0 °F30.0 °F46 %30.23 in10.0 miSSW (210°)8.1 mphClear
3:54 PM50.0 °F28.9 °F44 %30.21 in10.0 miSouth (190°)10.4 mphClear
4:54 PM46.9 °F30.9 °F54 %30.19 in10.0 miSouth (180°)10.4 mphClear
5:54 PM41.0 °F28.9 °F62 %30.19 in10.0 miSSW (200°)8.1 mphClear
6:54 PM39.0 °F28.0 °F65 %30.19 in10.0 miSSW (210°)6.9 mphClear
7:54 PM37.0 °F27.0 °F67 %30.19 in10.0 miSSW (200°)6.9 mphClear
8:54 PM37.9 °F27.0 °F65 %30.17 in10.0 miSW (220°)5.8 mphClear
9:54 PM36.0 °F27.0 °F70 %30.15 in10.0 miSSW (200°)6.9 mphClear
10:54 PM35.1 °F27.0 °F72 %30.12 in10.0 miSSW (210°)5.8 mphClear
11:54 PM35.1 °F27.0 °F72 %30.09 in10.0 miSSW (210°)5.8 mphClear
Hourly data recorded from KLYH, located miles away from Buena Vista, Virginia







STORIES FROM OUR PARTNERS